Location: Woodland Altars Campground
(39.0410°N, 83.3840°W)
Time: 08:51:16
(UTC-04:00)

N. Korean satellite - Visible Passes

Search period start: 19 October 2018 00:00
Search period end: 29 October 2018 00:00
Orbit: 459 x 510 km, 97.2° (Epoch: 19 October)

Date Brightness Start Highest point End Pass type
(mag) Time Alt. Az. Time Alt. Az. Time Alt. Az.
19 Oct 9.8 20:02:31 10° SW 20:05:10 19° W 20:07:52 10° NW visible
20 Oct 8.4 19:37:10 10° SSW 19:40:38 37° W 19:44:09 10° NNW visible
21 Oct 9.9 07:05:52 10° NE 07:08:25 18° E 07:10:57 10° SE visible
21 Oct 6.8 19:12:28 10° S 19:16:11 82° WSW 19:19:57 10° NNW visible
22 Oct 10.5 20:24:50 10° W 20:25:30 10° W 20:26:11 10° W visible
23 Oct 9.6 19:58:02 10° SW 20:00:53 21° W 20:03:46 10° NW visible
24 Oct 8.8 07:25:24 10° NNE 07:28:40 32° E 07:31:52 10° SSE visible
24 Oct 8.1 19:32:49 10° S 19:36:21 42° W 19:39:56 10° NNW visible
25 Oct 10.0 07:01:49 10° NE 07:04:06 16° E 07:06:20 10° SE visible
25 Oct 6.7 19:08:11 10° SSE 19:11:55 88° ENE 19:15:40 10° N visible
26 Oct 10.3 20:19:46 10° WSW 20:21:10 12° W 20:22:35 10° WNW visible
27 Oct 9.3 19:53:33 10° SSW 19:56:34 23° W 19:59:37 10° NW visible
28 Oct 9.0 07:21:11 10° NE 07:24:19 28° E 07:27:23 10° SSE visible
28 Oct 7.8 19:28:26 10° S 19:32:02 48° W 19:35:40 10° NNW visible
